| time (UTC) | temp F | wind direction | speed MPH | gust MPH | rain 1hr in | rain 24hr in | rain mn in | humidity % | barometer mb |
| 20260505211032 | 61 | 297 | 8.0 | 19.0 | 0.00 | 0.00 | 0.00 | 61 | 1014.1 |
| 20260505210525 | 62 | 169 | 9.0 | 19.0 | 0.00 | 0.00 | 0.00 | 61 | 1013.8 |
| 20260505210018 | 61 | 245 | 8.0 | 19.0 | 0.00 | 0.00 | 0.00 | 61 | 1013.8 |
| 20260505205510 | 62 | 236 | 11.0 | 17.0 | 0.00 | 0.00 | 0.00 | 60 | 1013.8 |
| 20260505205004 | 62 | 245 | 11.0 | 17.0 | 0.00 | 0.00 | 0.00 | 57 | 1013.8 |
| 20260505204456 | 61 | 240 | 6.0 | 19.0 | 0.00 | 0.00 | 0.00 | 59 | 1013.8 |
| 20260505203949 | 62 | 224 | 10.0 | 19.0 | 0.00 | 0.00 | 0.00 | 63 | 1013.8 |
| 20260505203442 | 63 | 194 | 12.0 | 19.0 | 0.00 | 0.00 | 0.00 | 59 | 1013.8 |
| 20260505202934 | 62 | 261 | 6.0 | 18.0 | 0.00 | 0.00 | 0.00 | 64 | 1013.8 |
| 20260505202427 | 62 | 216 | 6.0 | 17.0 | 0.00 | 0.00 | 0.00 | 63 | 1013.8 |
| 20260505201920 | 62 | 269 | 11.0 | 17.0 | 0.00 | 0.00 | 0.00 | 63 | 1013.8 |
| 20260505201412 | 62 | 220 | 12.0 | 17.0 | 0.00 | 0.00 | 0.00 | 62 | 1013.8 |
| 20260505200906 | 62 | 197 | 10.0 | 17.0 | 0.00 | 0.00 | 0.00 | 60 | 1013.8 |
| 20260505200357 | 61 | 209 | 11.0 | 16.0 | 0.00 | 0.00 | 0.00 | 62 | 1013.8 |
| 20260505195850 | 61 | 247 | 9.0 | 16.0 | 0.00 | 0.00 | 0.00 | 65 | 1014.1 |
| 20260505195344 | 62 | 238 | 11.0 | 16.0 | 0.00 | 0.00 | 0.00 | 64 | 1014.1 |
| 20260505194835 | 62 | 203 | 9.0 | 17.0 | 0.00 | 0.00 | 0.00 | 60 | 1013.8 |
| 20260505194328 | 62 | 252 | 10.0 | 18.0 | 0.00 | 0.00 | 0.00 | 61 | 1014.1 |
| 20260505193314 | 62 | 227 | 15.0 | 18.0 | 0.00 | 0.00 | 0.00 | 56 | 1014.1 |
| 20260505192807 | 62 | 236 | 9.0 | 18.0 | 0.00 | 0.00 | 0.00 | 56 | 1014.1 |
| 20260505192259 | 62 | 228 | 10.0 | 18.0 | 0.00 | 0.00 | 0.00 | 61 | 1014.1 |
| 20260505191752 | 62 | 238 | 14.0 | 16.0 | 0.00 | 0.00 | 0.00 | 59 | 1014.1 |
| 20260505191245 | 62 | 249 | 12.0 | 16.0 | 0.00 | 0.00 | 0.00 | 59 | 1014.1 |
| 20260505190738 | 62 | 213 | 12.0 | 15.0 | 0.00 | 0.00 | 0.00 | 59 | 1013.8 |
| 20260505190230 | 62 | 245 | 11.0 | 17.0 | 0.00 | 0.00 | 0.00 | 59 | 1014.1 |
| 20260505185723 | 62 | 214 | 11.0 | 17.0 | 0.00 | 0.00 | 0.00 | 59 | 1014.1 |
| 20260505185215 | 62 | 218 | 8.0 | 16.0 | 0.00 | 0.00 | 0.00 | 59 | 1014.1 |
| 20260505184708 | 62 | 266 | 9.0 | 14.0 | 0.00 | 0.00 | 0.00 | 59 | 1014.1 |
| 20260505184201 | 62 | 247 | 9.0 | 14.0 | 0.00 | 0.00 | 0.00 | 59 | 1014.1 |
| 20260505183653 | 63 | 238 | 6.0 | 13.0 | 0.00 | 0.00 | 0.00 | 62 | 1014.1 |
| 20260505183146 | 62 | 162 | 4.0 | 14.0 | 0.00 | 0.00 | 0.00 | 64 | 1014.1 |
| 20260505182639 | 61 | 232 | 2.0 | 14.0 | 0.00 | 0.00 | 0.00 | 66 | 1014.1 |
| 20260505182132 | 61 | 292 | 8.0 | 14.0 | 0.00 | 0.00 | 0.00 | 66 | 1014.1 |
| 20260505181624 | 61 | 215 | 9.0 | 14.0 | 0.00 | 0.00 | 0.00 | 66 | 1014.1 |
| 20260505175555 | 60 | 252 | 7.0 | 13.0 | 0.00 | 0.00 | 0.00 | 71 | 1014.1 |
| 20260505175048 | 60 | 235 | 5.0 | 13.0 | 0.00 | 0.00 | 0.00 | 71 | 1013.8 |
| 20260505174540 | 60 | 197 | 8.0 | 14.0 | 0.00 | 0.00 | 0.00 | 73 | 1013.8 |
| 20260505174034 | 60 | 187 | 8.0 | 14.0 | 0.00 | 0.00 | 0.00 | 71 | 1013.8 |
| 20260505173019 | 60 | 238 | 3.0 | 10.0 | 0.00 | 0.00 | 0.00 | 72 | 1013.4 |
| 20260505172511 | 60 | 279 | 4.0 | 10.0 | 0.00 | 0.00 | 0.00 | 71 | 1013.8 |
| 20260505172005 | 60 | 275 | 4.0 | 10.0 | 0.00 | 0.00 | 0.00 | 71 | 1013.8 |
| 20260505171458 | 61 | 210 | 8.0 | 10.0 | 0.00 | 0.00 | 0.00 | 70 | 1013.4 |
| 20260505170950 | 60 | 214 | 7.0 | 11.0 | 0.00 | 0.00 | 0.00 | 71 | 1013.8 |
| 20260505170443 | 60 | 209 | 7.0 | 13.0 | 0.00 | 0.00 | 0.00 | 71 | 1013.4 |
| 20260505165936 | 61 | 244 | 6.0 | 13.0 | 0.00 | 0.00 | 0.00 | 70 | 1013.4 |
| 20260505165428 | 61 | 289 | 5.0 | 10.0 | 0.00 | 0.00 | 0.00 | 70 | 1013.4 |
| 20260505164920 | 61 | 205 | 5.0 | 10.0 | 0.00 | 0.00 | 0.00 | 69 | 1013.4 |
| 20260505164413 | 61 | 209 | 4.0 | 10.0 | 0.00 | 0.00 | 0.00 | 68 | 1013.4 |
| 20260505163906 | 61 | 252 | 2.0 | 10.0 | 0.00 | 0.00 | 0.00 | 67 | 1013.1 |
| 20260505163359 | 61 | 245 | 5.0 | 10.0 | 0.00 | 0.00 | 0.00 | 67 | 1013.1 |
| 20260505162851 | 61 | 189 | 5.0 | 9.0 | 0.00 | 0.00 | 0.00 | 68 | 1013.1 |
| 20260505161330 | 61 | 160 | 5.0 | 8.0 | 0.00 | 0.00 | 0.00 | 66 | 1013.1 |
| 20260505160823 | 61 | 202 | 4.0 | 8.0 | 0.00 | 0.00 | 0.00 | 67 | 1012.8 |
| 20260505160315 | 60 | 224 | 3.0 | 9.0 | 0.00 | 0.00 | 0.00 | 67 | 1012.8 |
| 20260505153231 | 61 | 291 | 0.0 | 4.0 | 0.00 | 0.00 | 0.00 | 65 | 1012.8 |
| 20260505152723 | 60 | 228 | 3.0 | 6.0 | 0.00 | 0.00 | 0.00 | 67 | 1012.8 |
| 20260505152216 | 60 | 243 | 4.0 | 4.0 | 0.00 | 0.00 | 0.00 | 66 | 1012.8 |
| 20260505151709 | 60 | 214 | 1.0 | 4.0 | 0.00 | 0.00 | 0.00 | 67 | 1012.8 |
| 20260505151202 | 60 | 172 | 2.0 | 4.0 | 0.00 | 0.00 | 0.00 | 68 | 1012.8 |
| 20260505150655 | 60 | 250 | 2.0 | 3.0 | 0.00 | 0.00 | 0.00 | 68 | 1012.8 |
| 20260505150148 | 61 | 105 | 1.0 | 3.0 | 0.00 | 0.00 | 0.00 | 68 | 1012.8 |
| 20260505140528 | 54 | 331 | 0.0 | 2.0 | 0.00 | 0.00 | 0.00 | 78 | 1012.4 |
| 20260505124839 | 54 | 304 | 2.0 | 2.0 | 0.00 | 0.00 | 0.00 | 80 | 1012.4 |
| 20260505124332 | 54 | 316 | 1.0 | 2.0 | 0.00 | 0.00 | 0.00 | 80 | 1012.4 |
| 20260505123318 | 54 | 304 | 1.0 | 2.0 | 0.00 | 0.00 | 0.00 | 80 | 1012.4 |
| 20260505122810 | 55 | 314 | 1.0 | 2.0 | 0.00 | 0.00 | 0.00 | 80 | 1012.1 |
| 20260505120741 | 55 | 320 | 2.0 | 2.0 | 0.00 | 0.00 | 0.00 | 81 | 1012.1 |
| 20260505120234 | 56 | 316 | 1.0 | 2.0 | 0.00 | 0.00 | 0.00 | 81 | 1012.1 |
| 20260505115727 | 56 | 318 | 1.0 | 2.0 | 0.00 | 0.00 | 0.00 | 82 | 1012.1 |
| 20260505114712 | 56 | 290 | 1.0 | 2.0 | 0.00 | 0.00 | 0.00 | 82 | 1012.1 |
| 20260505114205 | 56 | 287 | 1.0 | 2.0 | 0.00 | 0.00 | 0.00 | 81 | 1012.1 |
| 20260505113657 | 56 | 233 | 2.0 | 2.0 | 0.00 | 0.00 | 0.00 | 80 | 1012.4 |
| 20260505113150 | 56 | 226 | 2.0 | 2.0 | 0.00 | 0.00 | 0.00 | 80 | 1012.4 |
| 20260505112643 | 57 | 267 | 0.0 | 2.0 | 0.00 | 0.00 | 0.00 | 79 | 1012.1 |
| 20260505111629 | 57 | 296 | 1.0 | 2.0 | 0.00 | 0.00 | 0.00 | 79 | 1012.1 |
| 20260505111121 | 57 | 294 | 0.0 | 2.0 | 0.00 | 0.00 | 0.00 | 79 | 1012.1 |
| 20260505110106 | 57 | 281 | 0.0 | 3.0 | 0.00 | 0.00 | 0.00 | 79 | 1012.4 |
| 20260505102009 | 58 | 251 | 2.0 | 3.0 | 0.00 | 0.00 | 0.00 | 77 | 1012.4 |
| 20260505101501 | 58 | 284 | 2.0 | 3.0 | 0.00 | 0.00 | 0.00 | 76 | 1012.4 |
| 20260505100954 | 58 | 260 | 2.0 | 4.0 | 0.00 | 0.00 | 0.00 | 75 | 1012.4 |
| 20260505100447 | 58 | 284 | 3.0 | 4.0 | 0.00 | 0.00 | 0.00 | 74 | 1012.4 |
| 20260505095940 | 58 | 253 | 2.0 | 4.0 | 0.00 | 0.00 | 0.00 | 73 | 1012.4 |
| 20260505095433 | 58 | 294 | 2.0 | 4.0 | 0.00 | 0.00 | 0.00 | 72 | 1012.4 |
| 20260505094925 | 58 | 267 | 2.0 | 3.0 | 0.00 | 0.00 | 0.00 | 71 | 1012.4 |
| 20260505093911 | 58 | 260 | 3.0 | 3.0 | 0.00 | 0.00 | 0.00 | 71 | 1012.4 |
| 20260505093404 | 58 | 310 | 1.0 | 4.0 | 0.00 | 0.00 | 0.00 | 71 | 1012.4 |
| 20260505092856 | 58 | 264 | 1.0 | 4.0 | 0.00 | 0.00 | 0.00 | 71 | 1012.8 |
| 20260505092349 | 58 | 301 | 0.0 | 4.0 | 0.00 | 0.00 | 0.00 | 71 | 1012.8 |
| 20260505091842 | 58 | 320 | 1.0 | 4.0 | 0.00 | 0.00 | 0.00 | 71 | 1012.8 |
| 20260505091335 | 58 | 344 | 0.0 | 3.0 | 0.00 | 0.00 | 0.00 | 71 | 1012.8 |
| 20260505090827 | 58 | 282 | 1.0 | 4.0 | 0.00 | 0.00 | 0.00 | 71 | 1012.8 |
| 20260505090320 | 58 | 278 | 1.0 | 4.0 | 0.00 | 0.00 | 0.00 | 70 | 1013.1 |
| 20260505085812 | 58 | 306 | 3.0 | 4.0 | 0.00 | 0.00 | 0.00 | 70 | 1012.8 |
| 20260505085305 | 58 | 327 | 0.0 | 3.0 | 0.00 | 0.00 | 0.00 | 71 | 1013.1 |
| 20260505084758 | 58 | 312 | 1.0 | 3.0 | 0.00 | 0.00 | 0.00 | 72 | 1013.1 |
| 20260505084251 | 59 | 308 | 3.0 | 3.0 | 0.00 | 0.00 | 0.00 | 72 | 1013.1 |
| 20260505083744 | 59 | 303 | 2.0 | 3.0 | 0.00 | 0.00 | 0.00 | 73 | 1013.1 |
| 20260505083236 | 59 | 272 | 3.0 | 4.0 | 0.00 | 0.00 | 0.00 | 73 | 1013.1 |
| 20260505082729 | 59 | 318 | 1.0 | 4.0 | 0.00 | 0.00 | 0.00 | 74 | 1013.1 |
| 20260505081714 | 58 | 330 | 2.0 | 3.0 | 0.00 | 0.00 | 0.00 | 77 | 1013.1 |
| 20260505080153 | 58 | 321 | 1.0 | 2.0 | 0.00 | 0.00 | 0.00 | 79 | 1013.4 |
| 20260505075140 | 58 | 304 | 0.0 | 2.0 | 0.00 | 0.00 | 0.00 | 82 | 1013.4 |
| 20260505074631 | 58 | 285 | 0.0 | 1.0 | 0.00 | 0.00 | 0.00 | 84 | 1013.4 |
| 20260505074124 | 58 | 271 | 1.0 | 2.0 | 0.00 | 0.00 | 0.00 | 84 | 1013.4 |
| 20260505073617 | 58 | 251 | 1.0 | 2.0 | 0.00 | 0.00 | 0.00 | 84 | 1013.4 |
| 20260505072602 | 58 | 276 | 0.0 | 0.0 | 0.00 | 0.00 | 0.00 | 84 | 1013.4 |
| 20260505072055 | 58 | 283 | 0.0 | 0.0 | 0.00 | 0.00 | 0.00 | 85 | 1013.4 |
| 20260505071548 | 58 | 317 | 0.0 | 1.0 | 0.00 | 0.00 | 0.00 | 85 | 1013.8 |
| 20260505071040 | 58 | 317 | 0.0 | 1.0 | 0.00 | 0.00 | 0.00 | 85 | 1013.4 |
| 20260505070026 | 58 | 316 | 1.0 | 2.0 | 0.00 | 0.00 | 0.00 | 85 | 1013.4 |
| 20260505065518 | 58 | 318 | 1.0 | 2.0 | 0.00 | 0.00 | 0.00 | 86 | 1013.4 |
| 20260505065011 | 58 | 336 | 0.0 | 2.0 | 0.00 | 0.00 | 0.00 | 86 | 1013.4 |
| 20260505064504 | 58 | 346 | 0.0 | 2.0 | 0.00 | 0.00 | 0.00 | 86 | 1013.4 |
| 20260505063956 | 58 | 311 | 1.0 | 2.0 | 0.00 | 0.00 | 0.00 | 87 | 1013.4 |
| 20260505063449 | 58 | 263 | 1.0 | 2.0 | 0.00 | 0.00 | 0.00 | 87 | 1013.4 |
| 20260505062943 | 58 | 288 | 1.0 | 2.0 | 0.00 | 0.00 | 0.00 | 87 | 1013.4 |
| 20260505062435 | 58 | 275 | 0.0 | 3.0 | 0.00 | 0.00 | 0.00 | 87 | 1013.8 |
| 20260505061928 | 57 | 290 | 1.0 | 4.0 | 0.00 | 0.00 | 0.00 | 87 | 1013.4 |
| 20260505061420 | 57 | 251 | 3.0 | 3.0 | 0.00 | 0.00 | 0.00 | 87 | 1013.4 |
| 20260505060913 | 57 | 245 | 2.0 | 3.0 | 0.00 | 0.00 | 0.00 | 87 | 1013.4 |
| 20260505060405 | 58 | 251 | 2.0 | 4.0 | 0.00 | 0.00 | 0.00 | 86 | 1013.4 |
| 20260505055858 | 58 | 290 | 1.0 | 4.0 | 0.00 | 0.00 | 0.00 | 86 | 1013.8 |
| 20260505055351 | 58 | 227 | 3.0 | 3.0 | 0.00 | 0.00 | 0.00 | 86 | 1013.8 |
| 20260505054844 | 58 | 252 | 3.0 | 3.0 | 0.00 | 0.00 | 0.00 | 86 | 1013.8 |
| 20260505053830 | 58 | 265 | 1.0 | 3.0 | 0.00 | 0.00 | 0.00 | 86 | 1013.8 |
| 20260505053322 | 58 | 270 | 3.0 | 3.0 | 0.00 | 0.00 | 0.00 | 86 | 1013.8 |
| 20260505052814 | 58 | 240 | 2.0 | 4.0 | 0.00 | 0.00 | 0.00 | 85 | 1013.8 |
| 20260505052307 | 58 | 228 | 2.0 | 4.0 | 0.00 | 0.00 | 0.00 | 85 | 1013.8 |
| 20260505051800 | 58 | 293 | 2.0 | 4.0 | 0.00 | 0.00 | 0.00 | 85 | 1013.8 |
| 20260505051253 | 58 | 288 | 1.0 | 4.0 | 0.00 | 0.00 | 0.00 | 85 | 1013.8 |
| 20260505050746 | 58 | 285 | 2.0 | 4.0 | 0.00 | 0.00 | 0.00 | 85 | 1013.8 |
| 20260505050239 | 58 | 284 | 0.0 | 6.0 | 0.00 | 0.00 | 0.00 | 85 | 1013.8 |
| 20260505041633 | 58 | 231 | 4.0 | 6.0 | 0.00 | 0.00 | 0.00 | 85 | 1014.1 |
| 20260505041126 | 58 | 259 | 2.0 | 7.0 | 0.00 | 0.00 | 0.00 | 85 | 1014.1 |
| 20260505040619 | 58 | 244 | 4.0 | 7.0 | 0.00 | 0.00 | 0.00 | 84 | 1014.1 |
| 20260505040111 | 58 | 237 | 4.0 | 7.0 | 0.00 | 0.00 | 0.00 | 84 | 1014.1 |
| 20260505035604 | 58 | 281 | 4.0 | 8.0 | 0.00 | 0.00 | 0.00 | 84 | 1014.1 |
| 20260505035057 | 58 | 261 | 6.0 | 8.0 | 0.00 | 0.00 | 0.00 | 83 | 1014.1 |
| 20260505034549 | 58 | 242 | 4.0 | 9.0 | 0.00 | 0.00 | 0.00 | 82 | 1014.1 |
| 20260505034042 | 58 | 265 | 3.0 | 9.0 | 0.00 | 0.00 | 0.00 | 81 | 1013.8 |
| 20260505033535 | 58 | 259 | 7.0 | 9.0 | 0.00 | 0.00 | 0.00 | 80 | 1013.8 |
| 20260505033028 | 58 | 240 | 5.0 | 9.0 | 0.00 | 0.00 | 0.00 | 80 | 1013.8 |
| 20260505032520 | 58 | 253 | 4.0 | 8.0 | 0.00 | 0.00 | 0.00 | 80 | 1013.8 |
| 20260505032013 | 58 | 237 | 4.0 | 10.0 | 0.00 | 0.00 | 0.00 | 79 | 1013.8 |
| 20260505031506 | 58 | 222 | 8.0 | 10.0 | 0.00 | 0.00 | 0.00 | 80 | 1013.8 |
| 20260505031000 | 58 | 234 | 5.0 | 9.0 | 0.00 | 0.00 | 0.00 | 79 | 1013.4 |
| 20260505030451 | 58 | 246 | 6.0 | 9.0 | 0.00 | 0.00 | 0.00 | 79 | 1013.4 |
| 20260505025945 | 59 | 265 | 6.0 | 10.0 | 0.00 | 0.00 | 0.00 | 78 | 1013.4 |
| 20260505023915 | 59 | 231 | 5.0 | 11.0 | 0.00 | 0.00 | 0.00 | 78 | 1013.4 |
| 20260505023407 | 59 | 232 | 9.0 | 14.0 | 0.00 | 0.00 | 0.00 | 78 | 1013.4 |
| 20260505022900 | 59 | 258 | 7.0 | 14.0 | 0.00 | 0.00 | 0.00 | 78 | 1013.4 |
| 20260505022353 | 59 | 192 | 6.0 | 10.0 | 0.00 | 0.00 | 0.00 | 78 | 1013.4 |
| 20260505021846 | 59 | 247 | 7.0 | 14.0 | 0.00 | 0.00 | 0.00 | 79 | 1013.4 |
| 20260505021339 | 59 | 280 | 9.0 | 15.0 | 0.00 | 0.00 | 0.00 | 78 | 1013.4 |
| 20260505020831 | 59 | 230 | 9.0 | 15.0 | 0.00 | 0.00 | 0.00 | 78 | 1013.4 |
| 20260505020324 | 59 | 267 | 11.0 | 16.0 | 0.00 | 0.00 | 0.00 | 77 | 1013.4 |
| 20260505015817 | 59 | 237 | 11.0 | 17.0 | 0.00 | 0.00 | 0.00 | 76 | 1013.4 |
| 20260505015310 | 60 | 246 | 11.0 | 17.0 | 0.00 | 0.00 | 0.00 | 76 | 1013.4 |
| 20260505014803 | 60 | 252 | 12.0 | 17.0 | 0.00 | 0.00 | 0.00 | 73 | 1013.1 |
| 20260505014255 | 60 | 263 | 8.0 | 17.0 | 0.00 | 0.00 | 0.00 | 74 | 1013.4 |
| 20260505013240 | 60 | 231 | 12.0 | 15.0 | 0.00 | 0.00 | 0.00 | 74 | 1013.4 |
| 20260505012733 | 60 | 242 | 9.0 | 15.0 | 0.00 | 0.00 | 0.00 | 75 | 1013.4 |
| 20260505012226 | 60 | 277 | 6.0 | 14.0 | 0.00 | 0.00 | 0.00 | 75 | 1013.8 |
| 20260505011719 | 60 | 246 | 10.0 | 14.0 | 0.00 | 0.00 | 0.00 | 75 | 1013.8 |
| 20260505011211 | 60 | 289 | 5.0 | 15.0 | 0.00 | 0.00 | 0.00 | 75 | 1013.8 |
| 20260505010703 | 60 | 269 | 4.0 | 15.0 | 0.00 | 0.00 | 0.00 | 75 | 1013.8 |
| 20260505005649 | 61 | 248 | 4.0 | 22.0 | 0.00 | 0.00 | 0.00 | 75 | 1013.4 |
| 20260505005142 | 60 | 251 | 7.0 | 22.0 | 0.00 | 0.00 | 0.00 | 77 | 1013.8 |
| 20260505004635 | 60 | 234 | 8.0 | 18.0 | 0.00 | 0.00 | 0.00 | 77 | 1013.8 |
| 20260505003620 | 61 | 186 | 5.0 | 17.0 | 0.00 | 0.00 | 0.00 | 74 | 1013.8 |
| 20260505003113 | 61 | 234 | 8.0 | 19.0 | 0.00 | 0.00 | 0.00 | 74 | 1013.8 |
| 20260505002605 | 61 | 236 | 10.0 | 19.0 | 0.00 | 0.00 | 0.00 | 73 | 1013.8 |
| 20260505002058 | 61 | 224 | 4.0 | 16.0 | 0.00 | 0.00 | 0.00 | 75 | 1013.8 |
| 20260505001551 | 61 | 262 | 6.0 | 17.0 | 0.00 | 0.00 | 0.00 | 74 | 1013.8 |
| 20260505001044 | 61 | 273 | 11.0 | 17.0 | 0.00 | 0.00 | 0.00 | 74 | 1013.8 |
| 20260505000537 | 61 | 260 | 12.0 | 21.0 | 0.00 | 0.00 | 0.00 | 75 | 1013.8 |
| 20260505000030 | 60 | 267 | 13.0 | 21.0 | 0.00 | 0.00 | 0.00 | 75 | 1013.8 |
| 20260504235015 | 61 | 216 | 9.0 | 18.0 | 0.00 | 0.00 | 0.00 | 76 | 1013.4 |
| 20260504234508 | 62 | 240 | 14.0 | 22.0 | 0.00 | 0.00 | 0.00 | 75 | 1013.8 |
| 20260504233453 | 62 | 267 | 12.0 | 19.0 | 0.00 | 0.00 | 0.00 | 73 | 1013.4 |
| 20260504232945 | 62 | 226 | 11.0 | 19.0 | 0.00 | 0.00 | 0.00 | 73 | 1013.4 |
| 20260504232438 | 62 | 240 | 12.0 | 19.0 | 0.00 | 0.00 | 0.00 | 73 | 1013.4 |
| 20260504231931 | 61 | 251 | 14.0 | 17.0 | 0.00 | 0.00 | 0.00 | 74 | 1013.8 |
| 20260504231424 | 61 | 237 | 16.0 | 17.0 | 0.00 | 0.00 | 0.00 | 74 | 1013.8 |
| 20260504230916 | 62 | 243 | 11.0 | 18.0 | 0.00 | 0.00 | 0.00 | 75 | 1013.8 |
| 20260504225901 | 62 | 225 | 13.0 | 21.0 | 0.00 | 0.00 | 0.00 | 73 | 1013.8 |
| 20260504225354 | 63 | 263 | 5.0 | 21.0 | 0.00 | 0.00 | 0.00 | 72 | 1013.8 |
| 20260504224847 | 62 | 272 | 14.0 | 19.0 | 0.00 | 0.00 | 0.00 | 73 | 1013.8 |
| 20260504223325 | 63 | 263 | 13.0 | 22.0 | 0.00 | 0.00 | 0.00 | 71 | 1014.1 |
| 20260504222819 | 62 | 260 | 7.0 | 23.0 | 0.00 | 0.00 | 0.00 | 73 | 1014.1 |
| 20260504222311 | 63 | 237 | 13.0 | 23.0 | 0.00 | 0.00 | 0.00 | 71 | 1014.1 |
| 20260504221803 | 63 | 277 | 10.0 | 24.0 | 0.00 | 0.00 | 0.00 | 72 | 1013.8 |
| 20260504215735 | 62 | 215 | 8.0 | 18.0 | 0.00 | 0.00 | 0.00 | 71 | 1014.5 |
| 20260504215227 | 63 | 227 | 9.0 | 18.0 | 0.00 | 0.00 | 0.00 | 72 | 1014.5 |
| 20260504214720 | 64 | 252 | 14.0 | 18.0 | 0.00 | 0.00 | 0.00 | 68 | 1014.5 |
| 20260504214213 | 64 | 328 | 5.0 | 21.0 | 0.00 | 0.00 | 0.00 | 69 | 1014.8 |
| 20260504213706 | 63 | 232 | 7.0 | 21.0 | 0.00 | 0.00 | 0.00 | 69 | 1014.8 |
| 20260504213158 | 64 | 207 | 10.0 | 18.0 | 0.00 | 0.00 | 0.00 | 68 | 1014.8 |
| 20260504212651 | 63 | 181 | 11.0 | 17.0 | 0.00 | 0.00 | 0.00 | 70 | 1014.5 |
| 20260504212143 | 64 | 277 | 9.0 | 16.0 | 0.00 | 0.00 | 0.00 | 68 | 1014.5 |
| 20260504211636 | 63 | 216 | 6.0 | 19.0 | 0.00 | 0.00 | 0.00 | 68 | 1014.8 |